Theta_e
313 313 313 313 312 312 311 311 310 308 307 307 307 308 308 310 311 312 314 316 318 320 321 322 323 323 322 320 320 320 321 322 323 324 325 325 324 323 323 324 324 324 324 325 325 325 325 324 322 320 319 318 317 316 315 314 313 313 312 311 310 309 308 307 307 306 305 305 306 306 306 307 306 306 306 305 305 305 304 304 303 302 301 300 299 299
312 312 312 311 311 311 310 310 310 309 308 307 307 307 307 308 309 310 312 313 315 317 318 319 320 321 320 320 319 319 320 321 322 323 324 324 322 321 321 322 322 322 321 322 323 323 323 322 321 319 319 318 316 316 315 314 313 312 311 310 309 309 308 307 306 305 304 305 305 305 306 306 306 305 305 304 304 304 304 303 302 301 300 299 299 299
311 311 311 310 310 310 310 309 309 309 308 308 308 308 308 308 308 309 310 312 313 314 315 316 317 318 319 319 319 319 320 320 321 322 322 322 321 320 319 320 320 320 319 319 320 321 321 320 320 319 318 317 316 315 314 313 312 311 310 310 309 308 308 307 306 305 304 304 304 305 305 305 305 305 304 304 303 303 303 302 301 301 300 299 298 299
310 310 310 309 309 309 309 309 309 309 308 308 308 308 308 307 308 308 309 310 311 312 313 313 314 315 316 317 318 319 319 320 320 321 320 320 320 319 317 317 318 319 319 319 320 320 320 319 318 317 317 316 315 314 313 312 311 311 310 309 309 308 307 306 305 304 303 303 304 304 304 304 304 304 303 303 302 302 302 301 301 300 299 299 299 299
308 308 308 308 308 308 309 309 308 308 308 307 307 307 307 307 307 307 308 308 309 309 310 310 311 311 312 313 314 315 316 317 318 319 319 319 318 317 316 315 315 316 318 319 319 319 318 317 316 316 315 314 313 313 312 311 310 310 309 309 308 307 306 305 304 303 302 303 303 304 304 304 303 303 303 302 302 302 301 301 301 300 300 299 299 300
307 307 307 307 307 307 308 308 308 308 307 306 306 306 306 306 307 307 307 307 307 307 308 308 308 309 309 310 311 311 312 314 315 316 317 317 317 316 315 314 314 314 315 316 317 317 316 315 314 313 313 312 312 311 311 310 310 309 309 308 307 306 304 303 302 302 301 302 303 303 303 303 303 303 302 302 302 301 301 301 301 300 300 300 300 301
306 306 306 306 306 306 307 307 307 307 307 306 306 306 306 306 306 306 306 306 306 306 307 307 307 307 307 308 308 309 310 311 313 314 315 315 316 315 314 313 313 313 313 313 314 314 313 312 311 311 310 310 310 310 310 309 309 309 308 307 305 304 302 301 301 300 301 302 302 303 303 303 303 302 302 302 301 301 301 301 301 301 301 301 301 302
305 305 305 305 305 305 305 306 306 306 306 306 305 305 305 305 305 305 305 305 306 306 306 306 306 306 307 307 308 308 309 310 311 312 313 314 314 314 313 312 312 312 312 311 311 311 310 310 309 308 308 308 308 308 308 308 308 306 305 304 302 301 300 300 299 299 300 300 301 302 302 302 302 302 302 301 301 301 301 301 301 301 301 302 302 303
304 304 304 304 304 304 304 304 304 305 305 305 305 305 304 304 304 304 304 304 305 305 305 305 306 306 306 307 307 308 309 309 310 311 312 312 312 312 311 311 311 311 311 311 310 310 309 308 307 307 306 306 306 306 306 306 305 304 302 301 300 300 299 299 299 299 299 299 300 300 301 301 301 302 301 301 301 301 301 301 302 302 302 302 303 303
303 303 303 303 303 303 303 303 303 303 304 305 305 304 304 304 303 302 303 303 303 304 304 305 305 305 306 306 307 308 308 309 310 310 311 311 310 310 310 310 310 310 310 310 310 309 308 307 307 306 305 305 305 305 305 304 303 302 301 300 300 300 300 299 299 299 299 299 298 298 299 300 300 301 301 301 301 301 301 301 302 302 303 303 303 303
302 302 302 302 302 303 303 303 303 303 303 303 304 304 304 303 303 302 302 302 302 302 303 303 304 304 304 305 305 306 307 308 308 308 309 309 309 308 308 308 309 309 309 309 309 309 308 307 307 306 305 305 305 305 305 304 303 303 302 302 302 302 302 301 300 299 298 298 298 298 297 298 300 301 301 301 301 301 301 301 301 302 303 303 303 303
302 302 302 302 302 302 302 302 302 302 302 302 302 302 302 303 303 303 302 302 301 301 302 302 303 303 303 304 304 304 305 305 306 306 307 307 307 307 307 307 307 307 307 307 307 308 308 307 307 306 305 305 305 305 305 305 305 304 304 304 304 303 302 301 299 298 298 298 297 297 296 298 299 300 301 301 301 301 301 301 301 302 302 302 303 303
302 302 301 301 301 301 301 301 301 301 301 301 301 301 301 301 302 302 302 302 302 301 301 301 301 302 302 303 303 303 304 304 304 305 305 306 307 307 307 307 306 306 306 306 306 306 307 307 306 306 306 306 306 306 307 307 306 306 305 304 303 302 301 299 298 298 297 297 296 296 296 298 300 301 301 302 302 302 302 301 301 301 302 302 302 302
301 301 301 300 300 300 300 300 300 300 300 300 301 301 302 301 301 301 301 302 301 301 300 300 300 300 301 302 302 303 303 303 304 304 304 305 305 305 306 306 306 306 306 305 305 305 306 306 306 306 306 306 306 306 307 307 307 306 305 303 302 300 299 298 297 297 297 296 296 296 297 299 300 301 302 302 302 302 302 302 302 301 301 301 301 301
301 301 300 300 300 300 300 300 299 300 300 300 300 301 301 301 300 300 300 301 300 300 299 299 299 299 300 300 301 301 302 303 303 303 303 304 304 304 304 305 306 306 306 306 306 306 306 306 306 306 306 306 306 306 306 306 306 305 303 302 300 299 298 297 297 297 297 297 297 297 298 299 300 301 302 302 302 302 302 302 302 301 301 301 301 300
301 301 300 300 301 301 300 300 300 300 300 300 300 300 300 300 300 299 300 300 299 299 298 297 297 297 298 299 300 300 301 301 301 301 302 302 303 304 304 304 304 305 306 306 306 306 306 306 306 306 306 306 306 306 306 305 304 303 302 301 299 298 298 297 297 297 297 297 297 297 298 299 300 301 302 302 302 302 302 302 301 301 301 300 300 300
301 301 300 300 301 301 301 300 300 300 300 300 300 300 300 299 299 299 299 300 299 298 298 297 297 297 297 297 298 299 299 300 300 300 301 301 302 303 303 303 304 304 305 305 306 306 305 306 306 306 306 306 306 305 305 304 303 302 301 301 300 299 298 298 298 297 297 297 297 297 298 298 299 300 301 302 302 302 302 301 301 301 300 300 300 299
301 301 300 300 300 301 301 301 300 300 300 300 299 299 299 299 299 299 299 299 299 298 298 298 298 299 298 298 298 299 299 299 299 299 299 300 301 302 303 303 303 303 304 304 305 305 305 305 305 305 305 305 305 304 304 303 302 302 301 301 300 300 299 299 299 298 298 298 297 297 297 298 299 300 301 301 301 301 301 301 301 300 300 299 299 299
300 301 300 300 300 301 301 300 300 300 300 300 299 299 299 299 299 299 299 299 299 298 298 298 299 300 300 300 300 300 300 299 298 298 298 299 299 300 302 302 302 302 303 303 304 304 304 304 304 304 304 304 303 303 302 302 301 301 301 300 300 300 300 300 299 299 299 298 298 297 297 297 298 299 300 300 301 301 301 300 300 300 300 299 299 298
300 300 300 300 300 300 300 300 300 300 300 300 300 299 299 298 298 298 299 299 299 299 299 299 299 300 301 301 301 301 301 299 298 298 298 298 299 299 300 301 301 301 301 302 303 303 303 303 303 303 303 303 302 302 302 301 301 301 300 300 300 300 300 300 300 299 299 299 298 298 297 297 297 298 299 299 300 300 300 300 300 299 299 299 298 298
300 300 300 300 301 300 300 300 300 300 300 300 300 299 299 298 298 298 298 299 299 299 299 299 299 300 301 301 302 302 301 300 298 298 298 298 298 298 299 300 300 300 300 301 301 302 302 302 302 302 302 302 302 301 301 301 301 300 300 300 300 300 300 300 299 299 299 299 298 298 298 297 297 297 298 298 299 299 299 298 298 298 298 298 298 297
300 300 300 300 301 301 300 300 301 301 300 300 300 299 299 298 298 298 298 298 298 299 299 299 299 300 301 301 301 301 301 300 299 299 299 298 298 298 298 299 299 299 299 299 300 300 301 301 301 301 301 301 301 301 301 301 301 300 300 300 300 300 300 299 299 299 299 299 299 298 298 297 297 297 297 297 297 297 296 296 296 297 297 297 297 297
301 301 300 300 300 300 300 301 301 301 300 300 300 300 300 299 299 299 298 298 299 299 299 299 299 300 300 300 301 301 300 300 300 300 299 299 299 298 298 298 298 298 298 299 299 300 300 300 301 301 301 301 301 301 301 301 301 301 300 300 300 300 300 299 299 299 299 299 299 299 299 298 298 297 297 296 296 295 295 295 295 296 296 296 296 296
300 301 301 301 300 300 300 300 301 301 300 300 300 300 300 300 300 300 300 299 299 299 299 299 298 298 299 299 299 299 299 299 299 299 299 299 299 299 298 298 297 297 297 298 298 299 299 299 300 300 301 301 301 301 301 301 301 301 301 300 300 300 299 299 299 299 299 299 299 299 299 298 298 297 297 296 296 295 295 295 296 296 296 296 296 296
299 300 300 301 301 300 300 300 300 300 300 300 300 300 300 300 300 300 300 299 299 298 298 298 298 297 297 297 298 298 298 298 298 299 299 299 298 298 297 297 297 296 296 297 297 298 298 298 299 300 300 301 301 301 301 301 301 301 301 301 300 300 299 299 299 299 299 299 299 299 299 299 298 298 297 297 296 296 295 296 296 296 296 296 296 296
298 299 299 300 300 301 301 300 300 300 300 300 300 300 300 300 300 299 299 299 298 298 298 297 297 297 296 296 296 297 297 297 298 298 298 298 298 297 296 296 297 296 296 296 296 296 297 297 298 299 300 300 301 301 301 302 302 301 301 301 300 300 299 299 299 299 299 299 299 299 299 299 298 298 297 297 297 296 296 296 296 296 296 296 296 296
297 298 298 299 300 300 300 300 300 300 300 300 300 300 300 300 299 299 298 298 298 298 297 297 297 297 297 296 296 296 296 297 297 297 298 298 298 297 296 296 296 296 296 295 295 296 296 297 297 298 299 300 301 301 301 301 301 301 301 300 300 299 299 298 298 298 298 298 298 299 299 299 298 298 298 297 297 297 296 296 296 296 296 296 296 296
297 297 298 298 299 299 300 300 300 300 300 300 300 300 300 300 299 298 298 298 298 297 297 297 297 297 297 297 296 296 296 296 296 297 297 297 297 297 296 296 295 295 295 295 295 295 296 296 296 297 298 299 300 300 300 300 300 300 299 299 299 298 298 298 297 298 298 298 299 299 299 299 299 298 298 297 297 297 297 297 296 296 296 296 296 295
296 297 297 297 298 298 299 300 300 300 300 300 300 300 300 300 299 298 298 298 298 297 297 297 298 298 298 297 297 296 295 295 295 296 296 296 296 296 295 295 295 295 294 294 294 294 294 294 295 296 297 298 298 299 299 298 298 298 298 297 297 297 297 296 297 297 297 298 298 299 299 299 299 298 298 297 297 297 297 297 296 296 296 296 296 295
296 296 296 297 297 298 298 299 299 300 300 300 300 300 300 299 299 299 299 298 298 297 297 297 297 298 298 297 296 295 294 294 294 295 295 295 295 295 295 294 294 294 293 293 292 291 291 293 294 295 296 296 296 296 296 296 296 295 295 295 295 295 295 296 296 296 297 298 298 298 299 299 299 298 298 298 297 297 297 297 297 296 296 296 296 295
296 296 296 296 297 297 297 298 299 299 300 300 300 300 300 299 299 299 299 298 298 297 297 297 297 297 297 297 296 295 295 294 294 295 295 295 295 295 294 293 293 292 293 293 292 290 290 291 292 294 294 294 294 294 294 294 294 293 293 293 294 294 295 295 295 296 296 297 298 298 298 299 298 298 298 297 297 297 297 297 296 296 296 296 295 295
296 296 296 296 296 297 297 297 298 298 299 299 300 300 300 299 299 298 298 298 298 297 297 297 297 297 297 297 297 297 297 296 295 294 294 294 295 295 294 293 292 292 292 293 293 293 292 291 291 292 293 293 293 293 293 293 292 292 292 292 292 293 294 294 294 295 296 296 297 298 298 298 298 298 298 297 297 297 297 297 297 296 296 296 295 295
296 296 296 296 296 296 296 296 297 297 298 299 299 300 300 300 299 298 298 298 298 297 297 297 297 297 297 297 297 298 298 297 296 295 294 294 294 294 294 293 292 291 291 292 293 294 294 293 292 291 292 292 292 293 293 292 292 291 291 291 291 292 293 293 294 294 295 296 296 297 298 298 298 298 297 297 297 297 297 297 297 296 296 295 295 294
296 296 296 296 296 296 296 296 296 296 297 298 299 299 300 300 299 298 298 298 297 297 297 297 297 297 297 297 297 297 297 296 296 295 295 294 294 294 293 292 292 292 291 291 291 292 293 293 293 293 292 292 292 292 292 291 291 291 291 291 291 291 292 292 293 294 295 295 296 297 297 298 298 298 297 297 297 297 297 297 296 296 296 295 295 294
296 296 296 296 296 296 296 296 296 296 296 297 298 298 299 299 299 299 298 297 297 297 297 297 297 297 297 297 296 296 297 296 295 295 295 294 294 294 294 292 292 292 292 291 291 291 292 292 293 293 293 292 291 291 292 291 291 290 290 290 290 290 291 292 293 294 294 295 296 297 297 298 298 298 297 297 297 297 297 296 296 296 295 295 294 294
296 296 295 295 295 295 295 295 295 295 295 296 297 297 298 299 299 299 298 297 297 297 296 296 297 297 297 297 297 296 296 296 295 295 295 295 295 294 294 293 293 293 292 292 291 291 291 291 291 292 292 292 291 291 291 291 291 290 290 290 290 290 290 291 292 293 294 295 295 296 297 297 298 297 297 297 297 297 296 296 296 295 295 294 294 293
296 296 296 295 295 295 295 295 295 295 295 295 296 296 297 298 299 299 298 298 297 297 296 296 296 296 296 297 297 296 296 296 295 294 294 294 294 294 294 293 293 293 293 292 292 291 291 291 291 291 291 291 291 291 292 291 291 290 290 289 290 290 290 291 292 293 294 295 295 296 296 297 297 297 297 297 297 296 296 296 295 295 295 294 293 293
297 296 296 296 295 295 295 295 295 295 295 295 295 296 296 297 298 298 298 298 297 297 296 296 296 296 296 296 296 296 296 296 295 295 294 294 294 294 294 293 293 293 293 293 292 292 291 291 290 290 290 290 291 291 292 291 290 290 290 290 290 290 290 290 292 293 294 295 295 296 296 297 297 297 297 297 296 296 295 295 295 295 294 294 293 293
297 297 296 296 296 295 295 295 295 295 295 295 295 295 296 296 297 297 298 298 298 297 297 296 296 295 295 295 295 295 295 295 295 295 294 294 294 293 293 293 292 292 292 292 292 292 291 291 291 290 290 290 290 290 290 290 290 289 290 289 289 289 290 290 292 293 294 295 295 296 296 297 297 296 296 296 295 295 295 295 294 294 294 294 293 293
297 297 297 296 296 296 295 295 295 295 295 295 295 295 295 296 296 297 297 297 298 297 297 296 296 295 295 295 295 295 295 295 295 295 294 294 293 293 293 293 292 292 292 292 291 291 291 291 291 291 290 290 290 290 289 289 289 289 289 288 288 288 289 290 291 293 294 295 295 295 296 296 296 296 295 295 295 294 294 294 294 294 293 293 293 293
297 297 297 297 296 296 296 295 295 295 295 295 295 295 295 295 295 296 296 296 297 297 297 296 296 295 295 294 294 294 294 294 294 294 294 294 293 293 293 292 292 292 291 291 291 291 291 290 290 290 290 290 290 290 290 289 289 289 288 288 288 288 289 290 291 292 294 294 295 295 295 295 295 295 294 294 294 294 294 294 293 293 293 292 292 292
296 297 297 297 296 296 296 296 296 295 295 295 295 295 295 295 295 295 295 295 295 296 296 296 295 294 294 294 293 293 294 293 293 293 293 293 293 293 293 292 292 292 291 291 290 290 290 290 290 290 290 290 290 290 289 289 289 289 289 289 289 289 289 290 291 292 293 294 294 294 294 294 294 294 294 294 294 294 294 293 293 293 292 292 292 291
295 296 297 297 297 297 296 296 296 295 295 295 295 295 295 295 295 295 295 294 294 294 294 295 294 294 293 292 292 293 293 293 293 293 293 293 293 293 293 292 292 291 291 290 290 290 290 290 290 290 290 290 289 289 289 289 289 289 289 289 289 289 289 289 290 291 293 293 293 294 294 294 294 294 294 293 293 293 293 293 293 292 292 292 291 291
296 296 297 297 297 297 296 296 296 295 295 295 295 295 295 295 295 295 294 294 294 294 294 293 293 293 292 292 292 292 292 292 292 292 292 292 292 292 292 292 292 291 291 291 290 290 289 289 289 290 290 290 289 289 289 289 289 289 289 289 289 289 289 289 289 290 291 292 293 293 293 293 293 293 293 293 293 293 293 293 292 292 292 291 291 290
296 296 297 297 297 297 296 296 295 295 295 295 294 294 294 294 295 294 294 294 294 293 293 293 292 292 292 292 292 291 291 291 291 291 291 291 291 291 291 291 291 291 291 291 290 290 290 289 289 289 289 290 289 289 289 289 289 289 289 289 289 289 289 290 290 290 290 291 292 292 293 293 293 293 293 293 293 293 293 293 292 292 291 291 290 290
294 295 296 296 297 296 296 296 295 295 295 294 294 294 294 294 294 294 294 294 293 293 293 292 292 292 292 292 292 291 291 291 290 290 290 291 291 291 291 291 291 291 290 290 290 290 290 290 290 290 289 289 289 289 289 289 289 289 289 289 289 289 289 289 289 290 290 290 291 291 292 292 293 292 292 292 293 293 293 292 292 292 291 290 290 289
293 294 295 296 296 296 296 296 295 295 295 294 294 294 294 294 294 294 293 293 293 293 292 292 292 292 292 292 292 292 291 290 290 290 290 290 290 290 290 290 290 290 290 290 290 290 290 290 290 290 290 289 289 289 289 289 289 289 289 289 289 289 289 289 289 289 290 290 290 291 291 292 292 291 291 291 291 292 292 292 292 291 291 290 289 289
293 293 294 295 296 296 296 296 295 295 294 294 294 294 294 294 293 293 293 293 293 293 292 291 291 291 292 292 292 292 292 291 290 290 289 289 289 289 290 290 290 290 290 289 289 289 289 290 290 290 290 290 289 289 289 289 289 289 289 289 289 289 288 288 289 289 289 289 290 291 291 291 291 290 290 289 289 289 290 291 291 291 290 289 289 288
292 293 294 295 295 296 296 296 295 295 294 294 294 294 293 293 293 293 293 293 292 292 292 291 291 291 291 292 292 292 292 291 291 290 290 289 289 289 289 289 289 289 289 289 289 289 289 289 289 290 290 290 290 289 289 289 289 289 289 289 289 289 288 288 288 288 289 289 289 290 290 291 290 290 289 289 288 288 288 289 290 290 289 288 288 287
292 292 293 294 295 295 295 295 295 295 294 294 294 294 293 293 293 293 293 292 292 292 292 292 291 291 291 291 292 292 292 292 291 290 290 289 289 289 289 289 289 288 288 288 288 289 289 289 289 289 289 290 290 290 289 289 289 289 289 289 289 289 288 287 287 288 288 288 289 289 290 290 290 290 289 289 288 287 287 287 288 288 288 287 287 287
292 292 292 293 294 294 295 295 295 294 294 294 294 293 293 293 292 292 292 292 292 292 292 292 292 291 291 291 291 292 292 291 291 291 290 289 289 289 289 288 288 288 288 288 288 288 288 288 289 289 289 289 289 289 289 289 289 288 288 288 289 289 288 287 287 287 287 288 288 289 289 289 289 289 289 289 288 287 287 286 286 287 287 287 286 286
Wind_Speed
19 20 23 25 27 27 29 32 32 32 31 31 31 31 32 32 33 33 34 35 36 38 39 39 39 40 40 40 40 40 41 41 42 42 40 34 26 21 23 27 29 29 28 28 30 32 34 36 37 39 39 38 38 37 35 33 31 31 31 29 28 26 24 22 21 21 22 23 24 25 26 26 27 27 27 27 26 25 25 25 24 23 22 21 19 19
17 19 20 23 24 26 27 30 32 32 32 32 32 32 32 32 32 33 33 34 35 36 36 36 36 38 40 41 41 42 42 42 42 40 37 32 26 21 21 24 27 27 27 26 26 28 31 34 37 38 39 39 38 36 34 31 30 29 29 28 26 24 22 21 20 21 22 23 24 25 26 27 27 27 27 27 26 25 25 25 24 23 22 21 20 19
15 17 18 20 23 24 25 27 30 32 33 34 34 34 33 33 33 33 33 34 35 35 35 34 34 36 38 40 42 43 43 43 42 39 37 33 28 24 21 23 26 29 30 29 28 28 30 33 36 37 38 38 37 35 32 30 29 28 27 25 24 22 21 20 20 21 22 24 25 26 27 27 27 27 27 26 25 25 25 24 24 23 22 21 20 19
13 15 17 19 21 23 24 25 27 30 32 32 33 33 33 33 33 34 35 34 34 34 34 33 33 34 36 38 40 41 41 41 40 39 38 35 31 26 23 23 25 28 31 32 32 31 30 32 34 36 36 36 35 33 31 29 28 26 25 24 22 21 21 20 20 22 23 24 25 26 27 27 27 27 26 26 25 24 24 24 23 22 21 20 20 19
11 13 15 17 19 21 22 22 24 26 28 29 29 29 30 31 32 33 33 33 33 32 33 33 32 32 33 34 35 36 36 36 36 37 37 36 33 28 24 23 24 27 30 33 34 34 32 32 32 33 34 33 32 31 29 28 26 25 24 22 22 21 20 20 21 22 24 25 26 27 27 27 27 27 26 25 24 24 24 23 22 21 20 20 19 20
9 12 13 15 17 18 19 19 20 22 24 26 27 27 27 29 30 30 30 30 31 31 32 32 31 32 32 32 31 31 31 31 31 33 34 34 33 29 26 24 25 26 28 31 33 33 32 31 31 31 31 31 31 30 28 27 25 24 23 22 22 21 21 21 22 23 25 26 27 27 27 28 28 27 26 25 24 24 24 23 22 21 20 20 19 20
9 11 13 14 15 16 16 17 18 19 20 22 23 24 25 26 26 27 28 29 30 30 31 31 32 32 32 32 31 30 29 28 29 30 32 34 34 32 28 26 26 26 28 29 31 31 31 30 30 30 30 31 31 30 28 26 24 23 22 21 21 21 21 21 22 24 26 27 28 28 28 28 28 27 27 25 25 24 24 23 22 21 20 20 19 19
9 11 12 13 13 14 15 15 16 17 19 20 20 20 21 22 22 23 25 27 28 29 29 30 31 32 33 33 33 32 31 30 30 31 32 35 36 34 30 27 27 28 28 28 28 29 29 29 29 30 30 31 30 29 27 25 23 22 21 20 20 20 20 21 23 24 26 27 28 28 28 28 28 27 27 26 26 25 25 24 22 21 20 20 20 20
10 11 12 13 12 12 12 13 15 16 18 19 19 18 18 17 18 19 21 22 24 25 26 27 28 30 32 34 36 36 35 34 33 33 34 36 36 34 30 28 28 29 30 30 29 28 28 28 29 30 30 30 29 27 25 24 23 22 22 21 22 22 22 22 23 24 25 26 27 28 28 28 28 28 27 27 27 27 26 24 23 21 20 20 20 20
11 11 12 13 14 13 11 11 13 15 17 18 19 18 18 17 16 15 16 18 20 22 24 25 26 27 29 32 34 35 35 35 35 35 34 34 32 31 29 29 30 31 32 32 31 30 29 29 30 30 30 29 28 26 25 25 24 25 25 25 25 26 25 25 25 24 24 24 25 27 27 28 28 28 28 28 28 28 27 25 23 22 21 20 20 20
11 12 12 13 13 14 13 12 12 14 16 17 18 18 18 18 17 15 14 15 17 20 22 24 25 25 25 27 29 31 32 32 32 33 32 30 28 27 27 29 31 32 33 33 33 32 30 30 30 30 30 29 28 26 26 26 27 27 28 28 28 27 26 26 25 24 23 23 23 25 27 28 29 29 29 29 29 28 27 26 25 23 22 21 21 21
10 10 11 11 11 11 12 12 13 14 15 15 14 14 16 18 19 18 16 15 16 18 20 22 23 24 24 25 26 28 28 29 29 30 30 29 27 26 26 27 29 31 32 32 32 32 31 30 30 30 30 29 28 27 26 26 27 28 28 28 27 25 24 23 22 21 21 21 21 23 26 28 29 29 29 29 28 28 27 27 26 25 23 23 22 21
10 9 9 10 10 10 11 11 11 12 14 14 13 12 14 17 19 19 18 16 16 17 19 20 21 22 24 24 25 26 27 27 28 29 30 29 27 26 25 26 27 29 30 31 31 32 31 30 30 30 30 30 29 27 26 26 26 27 27 26 24 22 20 20 20 19 19 19 20 23 26 28 29 29 28 28 28 27 27 27 26 26 25 25 24 23
10 10 9 9 10 10 11 11 11 11 13 15 15 15 16 17 18 18 17 15 15 16 17 18 19 20 22 23 25 25 26 27 28 29 30 30 29 27 25 25 26 28 29 30 31 31 31 30 30 30 30 30 30 28 27 26 25 25 25 23 21 20 19 19 19 19 19 19 21 23 26 28 28 28 27 27 27 27 27 27 27 26 27 27 27 26
10 9 8 8 8 9 10 11 12 12 14 15 16 15 14 15 16 16 15 14 13 14 15 16 17 18 21 22 23 24 25 26 26 27 28 30 30 29 27 25 24 26 28 30 31 31 30 30 29 30 30 30 30 29 28 26 25 24 23 22 20 19 19 20 20 20 20 21 22 24 26 27 27 27 27 27 27 27 27 27 27 27 27 28 28 28
10 9 8 8 9 10 11 12 12 13 14 14 14 14 13 13 15 16 15 14 13 13 13 12 11 13 17 21 23 23 23 24 24 25 26 28 30 31 29 26 24 24 25 28 29 29 28 28 28 28 29 30 30 30 28 27 25 24 23 22 22 21 21 21 21 21 21 22 23 25 26 27 27 27 27 27 27 27 27 27 28 28 28 28 29 29
11 11 10 10 10 11 12 13 14 14 13 14 14 15 15 15 15 16 16 15 14 13 12 11 7 4 7 14 20 23 23 22 22 23 23 24 27 30 31 28 26 25 25 26 27 27 26 26 26 27 28 29 29 29 28 26 25 25 24 24 24 24 24 24 23 23 23 23 24 25 26 27 28 28 27 27 27 28 28 28 28 28 28 28 28 29
12 12 11 11 11 12 13 13 14 14 14 14 15 15 16 16 16 17 17 16 14 13 12 12 9 5 3 6 13 21 23 22 21 20 20 21 23 26 30 29 28 26 25 25 26 25 25 26 26 27 27 28 28 27 27 26 25 25 25 25 26 26 26 26 26 25 25 25 25 25 26 27 28 28 28 28 28 28 28 28 28 28 28 28 28 28
13 13 13 12 13 13 14 14 15 15 15 15 15 15 15 16 16 17 17 17 16 15 14 13 12 11 9 7 12 19 23 23 21 18 17 18 19 23 27 28 27 26 25 26 26 26 26 26 27 27 27 27 27 27 27 26 26 26 26 26 27 27 27 27 27 27 27 26 26 26 26 27 28 29 29 29 29 29 28 28 28 27 27 27 27 27
15 15 15 14 14 14 14 16 16 17 17 17 17 16 15 15 16 16 17 17 17 17 16 15 14 14 13 11 12 16 21 23 21 19 17 16 17 20 24 26 26 25 25 26 27 27 27 27 28 28 28 28 28 28 27 27 27 27 27 27 28 28 28 28 27 27 27 27 27 26 26 27 28 29 30 30 30 29 29 28 27 27 27 27 27 27
16 17 18 17 15 14 14 16 17 18 19 18 17 17 16 15 15 16 16 17 17 17 17 16 16 16 16 14 13 15 18 21 22 19 16 15 16 18 22 25 26 25 26 27 27 28 28 29 29 29 29 29 29 29 29 29 29 28 29 29 28 28 28 28 27 27 27 27 28 27 27 28 28 29 30 30 30 29 28 28 27 28 28 28 28 28
17 18 19 19 19 18 17 17 18 19 19 19 18 17 16 16 16 16 17 17 17 17 17 17 17 17 17 17 16 16 17 21 23 22 16 14 14 17 21 23 25 25 25 27 28 29 30 30 31 31 31 31 31 31 31 31 31 30 30 30 29 29 28 28 27 27 27 28 28 28 28 29 29 30 30 29 29 28 28 28 28 29 30 30 29 29
19 18 19 20 21 21 20 19 19 19 19 20 20 20 19 19 19 19 18 19 19 19 18 18 17 16 16 17 17 16 16 19 21 22 18 12 12 16 20 22 23 24 24 26 28 30 31 32 32 33 33 33 33 33 33 32 32 32 31 31 31 30 29 29 28 28 28 28 29 29 29 29 30 30 30 29 28 28 28 29 30 31 31 31 30 29
21 19 19 19 20 21 21 21 21 20 20 20 21 21 21 22 21 21 21 21 21 20 18 16 15 13 13 14 15 15 17 18 20 21 18 14 12 14 18 21 22 22 22 24 27 29 30 32 33 34 35 35 35 34 34 33 33 32 32 32 32 31 31 30 30 30 30 29 29 30 30 30 31 30 30 29 29 29 29 30 31 32 31 31 30 29
24 22 20 19 19 20 21 22 22 22 22 21 21 21 21 21 21 21 20 19 18 17 15 13 11 11 11 12 13 15 17 18 20 20 17 13 11 12 16 20 20 20 19 21 23 26 27 29 31 33 34 35 35 34 34 33 33 33 33 33 33 32 32 32 32 32 31 31 31 30 30 31 31 31 30 30 30 30 30 31 31 31 31 30 30 29
26 25 23 20 19 18 19 21 22 22 22 22 21 21 21 21 20 19 18 17 16 15 13 12 10 10 11 12 13 15 17 18 20 21 18 14 11 11 14 17 19 19 17 17 19 22 24 26 28 31 33 34 34 34 34 33 33 34 34 34 33 33 33 33 33 33 33 33 32 32 31 32 32 32 31 31 30 30 30 31 31 30 30 29 29 29
25 25 24 23 21 19 18 18 20 21 22 23 22 21 21 21 20 18 16 16 16 16 14 10 7 7 10 10 12 15 18 19 21 22 20 16 13 11 13 15 17 17 16 15 17 19 21 23 26 28 31 32 33 33 33 33 34 34 34 33 33 33 33 33 33 34 34 34 34 33 32 33 33 32 32 31 31 31 30 30 30 29 29 28 28 28
22 24 25 25 24 22 20 18 18 20 21 22 23 23 22 22 20 18 17 18 18 18 15 11 7 5 6 9 11 14 17 20 22 23 21 18 13 11 13 15 16 16 15 14 15 18 20 22 24 26 28 29 30 31 32 32 32 32 32 31 31 31 31 32 33 33 34 34 34 34 34 34 34 33 33 32 31 31 30 30 29 28 28 27 27 28
20 21 23 24 25 25 23 21 20 19 20 21 22 23 24 24 23 21 19 19 19 18 16 15 12 9 9 10 11 12 16 19 22 23 23 18 13 12 13 14 16 16 16 12 11 14 17 21 23 24 25 26 27 28 29 30 30 30 29 29 29 29 30 31 32 33 34 35 35 35 34 35 35 34 33 33 32 31 30 29 28 28 28 28 28 28
19 20 21 22 23 24 25 24 23 21 20 20 21 23 25 26 25 24 22 21 20 19 17 16 15 14 12 10 7 7 11 17 22 24 24 18 14 12 14 15 17 17 16 11 6 5 10 17 21 23 24 25 25 26 26 27 27 27 27 27 28 29 30 31 32 34 34 35 35 35 35 36 35 35 34 33 32 31 30 29 28 28 28 28 28 29
20 20 21 21 21 22 24 25 25 24 23 22 22 23 25 26 26 25 23 22 22 21 19 17 17 16 15 8 4 3 5 14 21 24 25 20 16 14 15 16 17 18 18 14 5 1 3 8 14 19 23 24 25 26 26 25 26 26 27 27 28 29 30 32 33 34 35 36 36 36 36 36 36 35 34 33 32 31 30 30 29 28 28 28 28 29
20 20 21 20 20 20 21 23 24 25 25 25 24 24 25 26 26 25 24 23 23 23 21 19 18 18 17 13 9 6 6 13 20 24 26 21 17 16 17 17 17 18 20 19 12 5 2 2 5 11 18 22 24 26 26 26 26 27 27 29 30 31 31 32 33 34 35 35 36 36 36 36 35 35 34 33 32 31 31 30 29 28 28 28 28 28
20 21 21 21 20 20 20 21 22 23 24 25 26 26 26 26 26 26 26 25 24 24 23 21 20 19 18 18 17 14 12 13 17 22 24 22 18 16 17 18 17 18 19 19 17 13 7 4 3 5 11 18 22 24 26 26 27 28 29 30 31 32 32 30 30 31 32 33 34 35 35 35 35 34 33 33 32 32 31 30 30 29 28 29 29 28
20 21 21 21 21 21 21 21 21 22 23 24 25 26 26 27 27 27 27 26 26 25 25 23 22 20 19 18 17 17 15 14 16 20 22 23 20 16 17 18 18 17 17 17 16 15 12 10 6 4 5 11 17 21 23 25 27 28 29 30 31 32 32 30 29 29 29 30 31 33 34 34 33 33 33 32 32 31 31 30 30 29 28 29 29 28
19 20 20 21 21 21 21 22 22 22 22 23 24 26 26 27 27 27 27 27 27 26 26 26 25 23 22 19 17 16 16 15 16 19 21 24 22 18 18 18 19 19 17 16 15 14 12 13 13 9 5 6 11 17 20 22 24 26 28 29 30 31 32 30 29 29 29 30 31 33 34 34 33 32 32 32 31 31 31 30 30 29 28 28 29 29
19 19 19 19 20 20 21 21 21 22 22 22 23 24 26 27 27 27 27 28 28 28 28 28 27 26 25 23 21 19 19 18 18 19 21 24 24 21 18 19 20 21 19 17 16 15 13 14 16 15 11 7 7 10 14 18 21 23 25 27 29 30 30 30 30 30 30 30 32 33 34 34 34 33 32 32 31 31 30 30 29 29 28 27 27 28
20 19 18 18 18 19 19 20 21 21 22 22 22 23 25 26 27 27 27 27 28 28 28 28 28 28 27 26 25 23 21 20 20 21 22 23 24 23 21 20 21 23 22 19 18 17 16 14 14 15 14 13 10 8 9 15 18 20 23 25 27 29 29 30 30 30 30 31 33 34 35 35 35 34 33 32 31 30 29 29 29 29 28 27 26 26
21 21 20 19 18 18 19 19 20 21 21 22 22 23 24 25 26 27 26 27 27 28 28 28 28 28 28 27 26 24 22 22 22 23 23 24 24 24 23 21 22 23 24 23 21 20 18 14 10 8 11 14 15 13 11 14 17 20 22 23 25 27 29 30 30 30 31 32 33 34 35 35 35 34 33 32 31 30 29 28 28 28 28 26 24 23
20 20 20 19 19 19 19 19 20 20 21 21 22 22 23 24 26 27 27 27 27 27 28 28 28 29 29 28 27 26 24 23 23 24 24 25 25 25 25 23 22 23 24 24 24 22 20 17 13 11 10 12 14 15 14 15 17 20 22 22 25 28 29 30 31 31 31 32 33 34 34 35 34 33 33 32 32 31 30 30 29 28 28 26 25 23
20 20 20 20 20 20 20 20 20 20 20 20 21 21 22 23 24 25 27 27 27 27 27 27 27 28 28 28 27 26 26 25 24 24 25 25 26 26 25 24 24 23 24 25 24 24 22 20 18 18 17 14 13 14 14 15 17 19 21 20 20 24 29 31 31 32 31 32 32 33 34 35 34 33 33 33 33 33 33 32 31 29 29 28 26 24
19 20 21 20 20 21 21 21 20 20 20 20 20 21 21 22 23 23 24 26 26 26 26 26 26 26 26 26 27 27 27 26 25 25 25 26 26 26 26 25 24 23 24 24 25 24 24 22 20 19 19 17 16 15 16 17 18 18 20 19 19 22 27 30 32 32 31 31 32 33 34 35 34 34 34 34 34 34 34 33 32 30 29 28 28 26
21 21 20 20 20 20 21 21 21 20 20 20 21 22 23 23 22 22 22 23 24 24 25 25 24 23 23 24 25 27 27 27 26 25 25 26 26 26 26 26 25 24 24 24 24 24 24 23 22 20 20 19 16 14 14 16 18 18 19 20 20 20 22 27 31 32 31 31 31 33 34 35 35 35 34 34 34 34 33 32 31 30 29 28 28 28
23 22 21 20 20 20 20 20 20 20 21 21 22 23 23 23 23 22 21 21 21 22 23 24 23 22 20 20 22 25 26 27 27 26 25 25 26 26 26 26 26 25 24 23 23 23 24 23 22 21 20 20 18 16 14 15 17 18 19 20 20 17 13 20 28 31 32 31 32 32 34 35 35 36 35 34 34 33 32 31 30 29 29 28 27 27
21 21 21 20 20 20 19 19 19 20 20 21 22 23 23 24 23 22 21 20 20 20 21 22 21 20 19 19 20 21 23 25 26 26 26 25 25 25 26 26 27 27 26 24 22 21 21 21 21 21 20 20 19 18 16 15 16 18 18 19 20 20 17 20 26 32 32 32 32 32 33 34 35 35 35 34 33 32 31 31 30 29 28 27 26 26
18 19 20 20 19 19 19 19 19 20 20 21 22 23 23 24 24 23 21 20 19 19 19 20 19 17 16 17 18 18 20 22 24 25 25 25 25 25 25 26 27 27 27 26 24 22 20 20 20 20 20 20 19 18 17 16 17 17 18 19 20 21 21 21 26 32 33 33 32 33 33 34 34 34 33 33 33 32 31 30 30 29 28 27 26 25
20 20 20 19 19 18 19 20 19 19 20 21 22 22 23 24 25 24 23 21 19 18 19 19 18 16 15 15 16 17 17 19 21 22 24 25 25 25 25 26 27 27 27 27 25 24 22 21 20 19 19 19 19 18 18 18 18 17 18 19 19 20 20 20 24 30 34 35 34 34 34 33 33 32 31 31 32 32 32 31 30 29 28 27 26 25
23 21 21 20 19 19 19 19 19 20 20 21 21 22 23 24 25 24 23 22 20 18 18 18 18 17 16 16 16 17 17 17 18 20 22 24 25 25 26 26 26 26 26 26 25 23 22 21 20 20 19 18 17 17 19 19 19 18 18 19 19 19 19 20 22 27 32 35 35 35 34 33 31 29 29 29 30 31 31 31 30 29 28 26 26 25
23 22 22 21 20 19 19 19 20 20 20 20 20 21 22 24 25 24 22 22 20 19 17 17 17 17 16 16 17 18 18 18 18 19 20 22 24 25 26 26 26 26 25 24 23 22 21 20 20 20 21 20 18 17 18 20 20 20 20 20 20 20 20 21 22 25 29 32 34 35 35 33 30 28 27 27 26 27 29 31 31 29 28 26 25 25
23 22 22 20 19 19 19 19 20 20 20 20 20 20 22 24 24 24 22 22 21 19 18 17 17 16 15 16 17 18 18 18 18 19 20 21 22 23 24 24 24 24 23 22 21 20 20 19 19 20 21 22 21 19 19 20 21 21 21 21 21 21 20 21 22 24 26 29 32 34 34 34 31 29 27 25 23 24 26 29 30 29 28 26 25 25
24 24 23 21 20 19 19 18 19 20 20 20 20 20 20 22 23 23 23 22 21 20 19 18 17 16 15 15 16 16 17 17 17 18 19 20 22 22 23 22 21 20 18 17 17 17 16 16 18 19 21 22 22 21 20 21 21 21 21 21 21 21 20 20 21 23 24 27 29 32 33 33 31 29 27 25 23 22 22 24 27 28 27 26 25 25
23 24 24 23 22 20 19 18 18 19 19 19 19 19 19 20 21 21 21 21 21 20 19 18 18 17 16 16 16 16 17 17 17 17 19 20 21 22 22 22 21 19 16 14 13 13 12 11 11 15 20 23 23 22 21 21 21 20 20 20 20 20 19 19 20 22 23 25 27 30 31 32 30 28 26 24 22 20 19 20 23 26 27 26 25 25
Wind_Direction
220 223 227 228 227 227 228 230 227 225 224 224 223 222 221 221 221 221 221 221 221 220 220 219 220 220 221 223 225 227 230 234 238 239 237 233 230 229 226 222 221 221 223 224 224 222 218 211 204 199 197 196 197 197 197 196 196 197 199 200 201 203 206 210 213 216 217 216 216 215 215 216 218 220 222 222 223 223 224 224 225 225 225 226 225 225
221 221 223 225 225 224 225 228 226 224 222 223 223 222 221 220 219 219 220 220 220 220 220 220 220 220 221 223 225 226 229 233 236 237 234 230 228 226 224 224 226 229 231 234 233 227 218 210 203 200 198 198 197 197 196 196 197 199 200 201 203 206 210 214 217 220 220 219 218 217 217 218 220 222 224 224 225 225 225 226 226 227 227 227 226 225
219 218 218 222 222 222 222 225 226 225 224 224 225 225 224 222 221 221 221 221 222 222 222 222 222 221 222 223 224 226 228 231 233 233 231 230 229 227 222 221 224 228 230 233 235 230 219 209 204 201 199 199 198 198 197 198 200 201 202 204 207 211 215 216 219 223 223 222 220 220 219 220 221 222 224 225 226 226 226 226 227 227 228 227 225 223
219 215 214 217 220 221 223 224 225 226 225 225 225 226 226 225 224 224 224 224 224 224 225 225 224 224 224 224 224 225 226 227 229 229 230 230 230 229 225 219 217 219 222 225 229 227 218 209 204 202 201 200 199 199 199 199 201 203 205 209 213 217 218 215 219 225 225 224 222 221 220 220 221 222 223 225 226 226 226 225 225 225 225 224 223 222
230 221 217 216 217 219 222 224 226 225 225 223 224 225 226 226 226 227 227 226 226 226 227 227 227 226 226 226 225 225 225 225 225 226 227 229 230 231 229 221 214 211 213 216 219 218 213 207 204 203 202 202 201 201 201 201 203 207 211 216 221 222 219 217 221 226 227 225 223 221 221 221 221 222 223 223 225 225 224 224 223 223 223 222 221 220
247 233 226 220 218 218 219 221 223 223 222 221 221 223 225 227 227 228 228 228 228 229 229 230 230 230 230 230 229 229 228 227 225 224 225 227 229 231 230 225 217 210 206 206 207 206 204 202 202 203 203 202 202 202 203 205 209 214 219 223 226 227 225 222 224 226 226 224 223 222 221 222 222 222 222 222 223 224 223 222 222 221 220 220 219 219
257 243 233 225 222 221 220 220 220 219 216 216 217 220 222 225 226 227 228 229 230 230 231 232 233 234 234 235 235 235 236 234 232 230 229 230 232 233 231 227 221 214 207 202 198 196 196 197 198 200 201 201 202 203 205 208 212 217 221 224 225 226 227 226 226 226 224 222 222 222 222 222 222 222 222 222 222 223 223 222 221 220 219 218 217 217
256 246 236 227 223 223 222 222 220 218 214 211 210 212 216 219 222 224 226 228 229 230 231 233 235 237 238 239 240 241 241 241 239 237 235 235 235 234 230 225 221 217 212 206 200 196 194 195 196 197 198 199 200 202 204 206 209 212 214 216 218 220 222 223 224 224 223 223 222 222 222 223 223 223 223 223 223 222 222 221 219 218 217 216 216 216
250 241 234 226 222 221 223 224 222 217 213 210 207 206 208 211 215 218 221 224 226 228 229 230 233 236 238 240 241 242 243 243 242 240 238 237 235 231 226 221 219 217 215 212 207 203 200 198 198 198 199 199 200 201 202 202 203 205 208 210 212 214 216 218 220 222 223 224 225 225 225 225 225 225 225 224 223 222 221 220 218 216 215 215 215 216
250 239 231 225 222 220 220 223 221 217 212 210 208 207 207 206 207 210 215 218 221 223 225 226 227 230 233 236 238 239 239 240 239 237 234 230 226 222 218 215 214 214 214 213 211 209 206 204 203 202 203 204 204 204 204 204 205 207 210 213 215 217 218 218 219 220 221 223 225 227 227 227 226 225 225 224 222 221 220 219 217 215 213 214 216 217
250 242 233 226 223 222 221 221 219 215 210 208 208 209 210 209 206 205 208 214 218 218 219 221 222 223 225 228 230 230 230 228 227 225 221 214 209 208 210 211 211 211 211 212 212 211 211 209 208 208 208 209 210 210 211 211 213 214 217 219 220 221 221 221 220 220 220 222 224 227 228 227 226 225 224 223 222 221 220 218 216 214 213 215 217 218
250 244 235 228 224 223 222 222 219 213 207 203 202 206 209 210 209 207 208 212 215 216 216 217 219 221 222 222 222 222 220 218 215 211 207 201 197 196 201 206 209 209 210 210 211 212 213 213 212 212 212 213 215 216 218 219 220 221 221 222 222 223 223 224 224 223 223 224 225 227 228 226 225 223 222 222 221 221 220 218 216 214 213 214 216 218
250 245 238 232 228 225 222 219 214 209 204 200 201 203 207 208 208 208 210 214 217 218 217 217 218 220 221 222 222 220 218 215 213 209 204 201 196 193 193 198 202 205 207 208 209 211 212 213 213 213 214 216 219 223 226 227 226 224 223 222 222 223 225 227 228 228 228 229 229 229 227 225 223 222 221 220 220 220 219 218 217 215 214 214 215 216
245 243 239 234 231 227 222 216 210 206 206 207 209 210 210 208 206 206 208 213 217 220 219 218 218 220 221 222 224 223 221 218 216 212 209 207 203 199 196 196 198 200 203 204 206 208 210 210 211 213 216 219 224 228 231 231 228 225 222 221 221 222 225 228 230 231 232 232 232 230 227 224 222 221 220 220 219 219 219 219 218 217 216 216 216 217
240 237 235 233 232 229 224 219 216 215 216 215 214 214 212 208 204 201 200 204 209 212 213 215 218 221 221 222 223 224 223 220 217 214 213 213 211 209 207 205 202 200 200 202 204 206 208 209 210 213 217 221 226 229 232 231 228 224 221 220 219 220 222 225 227 229 231 231 231 229 226 224 222 220 220 219 219 219 219 219 219 219 219 219 220 220
238 233 231 233 234 232 227 223 221 222 222 220 217 213 208 202 199 197 195 196 195 194 194 199 210 222 226 225 223 222 222 220 217 214 212 214 215 215 215 214 211 206 202 201 202 204 205 208 212 215 219 223 226 229 229 228 225 222 221 221 221 221 221 223 224 226 228 229 230 229 227 224 222 221 220 219 220 220 220 220 221 221 222 223 225 226
238 233 232 234 236 235 232 228 225 224 223 220 217 213 208 202 198 196 193 192 188 185 188 192 197 216 228 228 224 221 219 217 215 213 211 212 215 217 217 217 214 210 207 204 203 203 204 208 213 218 221 223 225 225 225 223 222 222 223 224 225 225 225 225 225 226 227 228 229 229 228 226 224 222 221 220 221 221 221 222 223 224 225 227 228 230
239 234 233 234 236 236 233 229 226 223 222 218 215 213 210 207 202 198 194 191 188 187 192 197 202 205 198 214 220 220 217 214 212 209 208 210 213 216 216 216 215 212 209 207 206 206 206 209 213 217 219 221 221 220 220 220 220 222 225 228 230 231 231 231 230 229 229 229 229 229 229 228 226 224 222 221 222 222 223 224 225 227 228 230 232 234
243 238 235 234 236 236 233 228 224 221 219 216 213 210 207 206 203 199 196 194 192 191 194 199 208 212 211 210 215 216 214 212 208 205 205 208 212 214 214 213 213 212 210 209 208 208 207 209 211 214 215 215 214 215 216 218 220 223 226 230 232 234 235 235 234 233 231 230 229 229 229 228 227 225 223 223 223 224 224 225 227 229 231 233 235 236
245 242 238 236 237 237 235 231 226 223 220 218 215 210 205 202 201 199 199 198 198 199 201 203 209 214 216 219 218 215 212 209 204 201 203 207 211 213 213 211 210 210 210 210 210 209 208 208 208 209 210 210 211 213 215 219 222 225 228 231 233 235 237 238 236 234 232 230 229 229 229 228 227 225 224 223 224 224 225 226 228 231 233 235 236 237
246 244 241 239 237 236 236 234 231 228 225 221 216 211 206 202 201 202 203 202 202 204 205 209 214 216 216 218 217 214 209 204 198 196 201 206 210 213 214 213 212 211 212 213 213 212 211 210 209 209 210 211 213 216 219 222 226 228 230 232 234 236 238 238 238 235 232 229 228 228 228 227 226 224 223 223 224 225 226 229 232 234 235 236 236 236
246 245 244 241 238 237 237 237 236 233 229 223 216 210 207 203 203 205 206 205 205 206 209 213 217 218 217 218 218 215 210 205 199 196 197 203 210 213 214 214 213 213 215 216 217 217 217 216 215 215 216 218 220 223 226 229 232 233 234 234 235 236 237 237 236 233 231 228 227 227 227 227 225 224 223 223 225 227 230 232 234 234 235 234 234 234
251 249 247 243 240 238 237 238 238 236 232 226 220 216 215 213 212 211 211 210 211 212 214 216 217 218 217 217 216 215 212 209 205 200 197 201 207 209 211 211 211 213 216 219 221 222 223 223 224 224 225 227 229 231 233 235 237 238 238 237 237 236 236 235 233 230 228 226 225 225 225 225 224 224 224 225 226 228 231 233 233 232 231 231 231 231
253 252 250 246 243 240 238 238 237 235 233 230 228 227 227 228 227 225 224 221 219 217 217 216 215 214 213 212 211 210 210 208 204 201 199 203 203 202 204 206 207 210 215 219 222 224 225 227 228 230 231 233 234 236 237 238 239 240 240 239 238 237 236 234 232 229 227 226 225 225 225 225 224 224 225 225 226 228 229 229 229 228 228 228 228 229
251 252 252 251 248 244 241 238 237 235 234 232 231 230 231 232 232 231 230 227 223 218 214 211 208 207 206 205 204 205 207 205 202 200 200 202 200 198 201 204 205 207 214 219 222 224 225 227 229 231 233 234 235 236 237 238 239 240 240 240 239 238 237 235 232 230 229 227 226 225 225 224 224 224 225 225 225 226 225 225 225 225 226 226 227 228
251 251 251 252 252 250 246 242 239 237 235 234 231 229 227 226 225 224 222 219 215 210 206 206 206 207 205 203 203 204 206 205 203 202 202 200 197 198 202 205 206 207 211 217 222 224 226 227 229 231 233 234 234 235 235 235 236 238 240 240 240 239 238 236 233 231 230 229 228 226 225 225 224 224 223 223 223 223 223 222 222 223 224 224 225 227
253 251 250 250 251 251 249 245 241 237 235 233 232 229 225 220 215 212 210 208 205 203 202 206 212 212 208 208 210 209 207 206 205 204 203 201 200 201 205 207 206 206 208 216 223 226 228 229 231 233 234 234 234 233 232 232 233 235 237 239 239 239 238 236 233 231 229 228 227 227 225 224 223 222 222 222 221 222 221 221 221 221 222 222 223 225
256 253 251 249 249 248 248 247 243 237 234 231 230 227 223 215 208 205 207 206 203 202 205 209 211 209 212 215 216 215 211 208 206 204 203 201 203 206 206 206 206 205 205 213 224 229 231 233 234 236 236 236 235 233 232 231 231 233 234 236 237 237 237 235 232 230 228 226 226 226 224 223 221 220 220 220 220 220 220 220 220 220 220 220 221 223
262 257 253 250 247 246 245 245 243 239 234 231 228 225 221 215 210 208 209 206 203 203 207 210 212 214 217 217 215 214 213 212 209 205 202 200 205 210 207 204 203 201 199 206 221 233 237 238 238 238 239 238 237 235 233 232 232 232 233 234 235 235 234 233 230 228 226 225 225 224 223 221 220 219 218 218 218 218 218 218 217 217 218 219 220 222
267 262 257 252 248 245 243 242 241 240 237 233 229 225 221 218 216 214 212 207 204 203 208 210 212 214 215 212 208 209 215 216 213 208 202 200 203 207 203 199 199 198 194 192 202 238 243 243 242 241 241 241 240 238 236 235 234 234 233 233 232 232 231 229 228 226 225 224 224 223 222 220 219 218 217 217 217 216 216 216 215 215 216 217 219 221
266 264 261 257 252 247 243 241 239 238 237 235 232 228 223 220 219 217 214 209 206 206 208 210 211 211 209 203 195 204 217 216 215 211 205 200 201 204 198 194 195 196 194 190 179 53 247 243 239 238 240 241 241 241 240 238 237 235 233 231 229 227 226 226 225 225 224 223 223 223 222 220 218 217 216 216 215 215 215 214 214 213 214 216 217 219
263 263 262 261 258 253 246 241 238 236 235 234 232 230 226 223 220 218 215 212 210 209 209 210 212 211 210 210 213 218 220 212 212 211 206 202 203 205 202 196 193 194 196 196 197 196 191 217 221 225 230 233 236 238 239 238 236 233 231 228 226 225 224 223 223 223 223 223 223 223 222 220 218 217 215 214 214 214 214 213 212 211 213 214 215 216
260 260 261 262 261 256 250 244 238 233 231 230 230 229 227 225 223 220 218 215 214 212 211 211 212 212 213 216 220 225 225 215 212 210 206 202 201 203 203 197 193 192 195 199 204 210 214 216 216 216 220 224 228 232 234 234 232 230 228 226 225 224 224 222 221 221 221 221 221 221 221 220 219 217 215 215 214 214 213 212 211 211 212 213 213 214
256 256 257 258 257 255 251 246 239 233 229 227 226 226 225 224 223 221 220 218 217 215 214 213 212 211 213 217 222 226 227 220 214 210 207 200 198 199 199 196 194 193 193 199 206 214 222 226 229 231 224 224 227 229 229 228 227 226 224 223 224 224 222 221 219 218 218 218 218 218 218 218 218 217 217 216 215 214 213 213 212 212 212 213 213 213
252 250 249 249 249 249 247 244 239 235 230 227 224 223 222 222 222 221 220 219 218 217 217 217 216 214 214 215 219 222 223 218 214 210 208 201 198 198 198 198 198 196 194 198 204 210 220 225 226 227 228 225 228 229 230 228 226 224 222 222 222 222 221 219 217 216 215 214 214 214 214 214 215 215 215 215 214 213 212 212 211 211 212 214 215 214
251 247 242 240 239 240 240 239 237 234 231 228 225 222 221 220 220 220 220 219 219 219 219 220 220 219 219 219 219 219 219 218 215 213 210 205 201 199 199 202 202 199 197 199 202 206 213 219 222 224 225 222 223 228 233 230 226 223 222 221 220 221 220 218 216 214 213 212 212 212 211 211 211 211 212 212 212 211 210 210 209 209 210 212 216 217
250 246 241 237 233 232 233 234 234 232 231 229 227 224 222 220 220 220 220 219 219 219 219 220 221 221 222 223 224 224 222 221 218 216 213 209 206 203 203 205 205 203 200 200 201 204 208 212 217 220 223 222 219 218 227 226 224 222 221 219 218 218 218 216 214 213 212 211 211 210 209 209 209 209 209 209 209 208 208 208 208 208 209 210 214 218
248 246 244 239 234 231 230 230 231 231 230 228 227 226 225 223 222 222 222 221 221 220 219 220 221 222 222 224 225 226 225 224 221 218 215 212 210 208 208 208 207 206 205 204 203 203 203 206 207 212 219 222 223 222 217 213 212 214 216 216 215 215 215 213 211 211 211 210 210 209 208 208 208 207 207 207 206 205 204 205 205 206 207 208 211 216
248 245 242 238 235 232 231 231 231 231 231 231 230 230 229 228 227 226 225 225 224 223 222 222 222 223 223 224 224 225 225 224 223 221 218 216 214 212 212 211 210 209 209 208 207 205 204 205 206 207 210 215 218 220 218 211 206 206 208 209 210 212 212 210 208 208 209 209 209 208 207 207 207 206 206 205 204 203 201 201 201 202 203 204 207 213
252 247 242 237 235 235 233 233 234 234 234 234 234 234 232 231 230 229 229 228 228 227 226 225 225 225 225 225 224 225 225 225 224 223 221 219 217 216 215 214 213 213 211 210 209 208 207 209 211 212 211 210 210 211 210 207 204 200 197 197 202 208 209 207 206 206 207 208 207 207 206 206 206 206 205 205 204 202 201 199 199 199 201 202 203 206
257 253 247 241 238 236 236 236 236 236 236 235 234 232 231 229 228 228 228 228 228 227 226 225 224 224 224 224 224 225 225 225 225 224 223 222 220 219 218 217 217 216 214 211 210 211 211 212 213 214 214 213 211 209 207 205 203 199 193 192 197 203 204 204 204 204 205 206 207 207 207 206 206 205 205 205 205 204 203 201 199 200 201 203 203 203
257 256 252 246 241 237 237 237 238 237 235 233 230 228 227 226 225 224 224 224 224 223 222 220 219 219 220 222 224 224 224 224 224 225 225 224 223 222 220 219 219 218 215 212 211 211 212 214 215 215 214 213 211 209 208 206 204 202 199 197 195 196 200 203 203 202 203 204 206 207 207 206 205 204 204 203 204 205 205 204 204 203 204 206 207 208
252 255 256 252 246 240 237 234 233 231 229 227 225 225 225 225 224 223 221 220 220 220 218 217 215 213 212 216 220 223 223 224 224 224 224 225 225 223 222 221 220 219 216 212 210 211 213 215 216 217 216 214 211 209 207 202 201 202 202 199 191 185 187 199 202 201 202 203 204 205 206 205 204 203 203 203 203 204 204 206 207 209 210 211 212 213
251 254 257 256 250 242 233 227 224 223 222 222 223 224 224 225 224 222 220 219 218 217 216 214 211 209 209 212 216 219 221 222 222 222 223 223 224 224 223 222 221 220 219 215 211 209 210 214 217 219 218 216 214 211 209 204 201 200 201 199 195 192 192 196 198 199 200 201 202 204 205 205 204 202 201 202 202 203 204 206 208 211 214 216 216 216
262 260 260 258 249 238 227 222 220 219 219 220 223 224 223 223 222 220 218 217 216 215 213 209 206 204 208 212 213 214 216 219 220 220 220 220 221 221 221 221 220 220 220 218 215 212 209 211 215 218 218 217 215 213 210 207 204 202 201 199 199 201 204 203 199 197 198 199 200 202 204 205 203 200 199 200 201 203 205 207 209 211 214 216 217 218
268 265 263 260 251 238 227 222 219 217 218 220 222 222 221 221 220 219 217 214 212 211 210 206 203 203 208 209 207 207 209 213 215 216 216 216 217 217 217 218 219 219 219 219 219 218 216 214 213 213 213 214 215 215 213 210 206 202 200 198 197 200 204 206 203 200 198 198 198 200 203 203 201 199 197 198 201 203 206 208 211 213 215 216 218 219
259 260 259 259 254 244 232 224 218 216 217 219 219 219 219 218 217 216 214 212 209 206 205 204 205 207 210 207 204 202 203 204 207 210 211 212 213 213 213 214 216 218 219 219 219 219 220 221 219 214 209 208 210 213 214 212 209 204 200 196 195 195 199 203 204 203 201 199 198 199 200 200 198 196 197 199 201 203 206 209 212 214 216 218 219 220
251 252 253 255 254 249 240 229 220 215 214 215 215 215 216 216 214 212 210 208 206 204 201 201 205 210 213 210 206 204 202 201 201 203 206 207 209 209 209 210 212 214 217 218 218 218 219 220 221 219 214 210 208 209 211 210 208 206 202 197 195 195 197 201 204 204 202 201 200 200 199 197 194 193 195 196 199 202 205 208 210 213 216 218 219 220
246 247 248 250 251 250 244 234 222 213 211 211 211 210 212 213 213 210 207 204 202 201 200 201 205 209 213 213 210 207 204 202 200 200 201 202 204 204 205 206 207 209 212 214 215 217 218 219 220 221 221 217 213 210 209 208 207 206 203 200 197 196 197 200 202 203 202 201 202 202 201 199 198 196 194 194 196 201 205 207 209 211 213 216 218 219
241 242 243 245 247 249 247 238 225 214 209 206 205 205 206 209 210 209 208 204 202 201 203 203 204 207 211 212 211 207 204 201 198 197 197 198 198 198 198 198 199 200 202 205 209 212 216 220 221 222 221 220 217 214 210 207 205 204 202 200 199 198 197 198 201 203 202 202 202 203 202 201 199 198 196 195 197 199 203 206 208 210 211 213 215 217
234 234 236 238 240 244 245 240 229 216 208 203 200 200 201 203 205 206 206 204 203 203 205 205 205 207 210 211 209 207 204 201 197 195 193 192 192 192 191 190 189 188 188 190 196 203 209 217 224 227 225 221 218 216 213 207 202 199 199 200 199 198 196 196 199 201 202 202 203 203 202 200 198 197 196 196 196 198 201 205 208 209 210 211 213 214